Regional Weather Roundup
Issued by NWS

Home | Current Version | Previous Version | Text Only | Print | Product List | Glossary On
Versions: 1 2 3 4 5 6 7 8 9 10 11 12 13 14 15 16 17 18 19 20 21 22 23 24 25 26 27 28 29 30 31 32 33 34 35 36 37 38 39 40 41 42 43 44 45 46 47 48 49
000
ASPQ40 PGUM 201712
RWRPQ
WEATHER ROUNDUP FOR THE MARIANAS AND MICRONESIA
NATIONAL WEATHER SERVICE TIYAN GU
300 AM CHST THU AUG 21 2014

GUZ001>004-201800-
MARIANA ISLANDS-

CITY           SKY/WX    TMP DP  RH WIND       PRES   REMARKS
GUAM AIRPORT   CLEAR     75  72  88 CALM      29.84F
ANDERSEN AFB   CLEAR     75  73  94 W6        29.83F
ROTA AIRPORT   NOT AVBL
TINIAN AP      NOT AVBL
SAIPAN AP      CLEAR     79  75  89 CALM      29.81F

$$

PMZ161-201800-
REPUBLIC OF PALAU-

CITY           SKY/WX    TMP DP  RH WIND       PRES   REMARKS
KOROR AP       MOCLDY    82  81  94 SW6       29.83F HX  95
KOROR WSO      MOCLDY    81  75  83 SW6       29.82F

$$

PMZ171>174-201800-
FEDERATED STATES OF MICRONESIA-

CITY           SKY/WX    TMP DP  RH WIND       PRES   REMARKS
YAP AIRPORT    MOCLDY    79  75  89 VRB5      29.84F
CHUUK AP       CLOUDY    82  79  89 VRB6      29.79S HX  93
POHNPEI AP     NOT AVBL
POHNPEI WSO    NOT AVBL
KOSRAE AP      NOT AVBL

$$

PMZ181-201800-
REPUBLIC OF THE MARSHALL ISLANDS-

CITY           SKY/WX    TMP DP  RH WIND       PRES   REMARKS
KWAJALEIN AP   RAIN      81  73  78 SW3       29.84S
MAJURO AP      NOT AVBL
MAJURO WSO     LGT RAIN  81  75  83 VRB3      29.82S

$$



USA.gov is the U.S. government's official web portal to all federal, state and local government web resources and services.